Weather Roundup
Issued by NWS Chicago, IL

Home | Current Version | Previous Version | Graphics & Text | Print | Product List | Glossary On
Versions: 1 2 3 4 5 6 7 8 9 10 11 12 13 14 15 16 17 18 19 20 21 22 23 24 25 26 27 28 29 30 31 32 33 34 35 36 37 38 39 40 41 42 43 44 45 46 47 48 49 50
000
NZUS59 KLOT 280300
HRRLOT

CHICAGO AREA WEATHER ROUNDUP
NATIONAL WEATHER SERVICE CHICAGO/ROMEOVILLE IL
900 PM CST TUE JAN 27 2015

NOTE: "FAIR" INDICATES FEW OR NO CLOUDS BELOW 12,000 FEET WITH NO
SIGNIFICANT WEATHER AND/OR OBSTRUCTIONS TO VISIBILITY.

* THESE STATIONS ARE NOT UNDER NWS QUALITY CONTROL. THEY ALSO MAY NOT
  REPORT WEATHER SUCH AS PRECIPITATION OR FOG.

ILZ005-006-012>014-019>023-280400-
NORTHEAST ILLINOIS

CITY           SKY/WX    TMP DP  RH WIND       PRES   REMARKS
OHARE          PTCLDY    24  17  74 E5        30.23S WCI  18
MIDWAY         PTCLDY    28  19  69 NE6       30.24S WCI  22
AURORA         CLEAR     22  15  75 CALM      30.24R
WAUKEGAN       PTCLDY    16  12  84 CALM      30.22F
DUPAGE AIRPORT PTCLDY    22  15  75 CALM      30.23S
WHEELING       CLEAR     20  15  81 CALM      30.25F
NORTHERLY IS     N/A     27  18  69 NE8         N/A  WCI  19
$$

WIZ051-052-058>065-066-070>072-280400-
SOUTHEAST WISCONSIN

CITY           SKY/WX    TMP DP  RH WIND       PRES   REMARKS
MILWAUKEE      CLOUDY    27  17  66 N3        30.24S
KENOSHA*       CLEAR     19  15  84 NE5       30.23S WCI  12
RACINE*        CLOUDY    27  18  69 N9        30.25S WCI  18
WAUKESHA       CLOUDY    23  18  80 NE5       30.24S WCI  17
$$

INZ001>003-010>013-019-020-280400-
NORTHWEST INDIANA

CITY           SKY/WX    TMP DP  RH WIND       PRES   REMARKS
GARY*          PTCLDY    27  16  63 NE9       30.25F WCI  17
MICHIGAN CITY* NOT AVBL
RENSSELAER*    NOT AVBL
$$

LMZ740>746-280400-
SOUTHERN LAKE MICHIGAN

STATION/POSITION TIME  SKY/WX   TEMP WIND        PRES    VSBY
                                AIR  DIR/SP/G
                 (UTC)          (F)  (DEG/KT/KT) (MB)    (MI)
HARRISON CRIB    0200            27   20/  9/ 10   N/A
BURNHAM HARBOR   0300            27   40/  5/ 10   N/A
CALUMET HARBOR   0200            26   20/  5/  8   N/A
BURNS HARBOR     NOT AVBL
MICHIGAN CITY    0200            27   10/  9/ 11   N/A
$$

ABBREVIATIONS USED IN REMARKS
   TC - TEMPERATURE IN CELSIUS
  WCI - WIND CHILL INDEX
   HX - HEAT INDEX
  VSB - VISIBILITY
$$



USA.gov is the U.S. government's official web portal to all federal, state and local government web resources and services.